Regional Weather Roundup
Issued by NWS

Home | Current Version | Previous Version | Graphics & Text | Print | Product List | Glossary On
Versions: 1 2 3 4 5 6 7 8 9 10 11 12 13 14 15 16 17 18 19 20 21 22 23 24 25 26 27 28 29 30 31 32 33 34 35 36 37 38 39 40 41 42 43 44 45 46 47 48 49 50
040
ASUS44 KLIX 161101
RWRLA
LOUISIANA WEATHER ROUNDUP
NATIONAL WEATHER SERVICE NEW ORLEANS LA
600 AM CDT WED APR 16 2014

NOTE: "FAIR" INDICATES FEW OR NO CLOUDS BELOW 12,000 FEET WITH NO
      SIGNIFICANT WEATHER AND/OR OBSTRUCTIONS TO VISIBILITY.
      SKY/WX - SKY CONDITION AND SIGNIFICANT WEATHER.
      TMP - AIR TEMPERATURE.    DP   - DEWPOINT TEMPERATURE.
      RH  - RELATIVE HUMIDITY.  PRES - PRESSURE.
      HX  - HEAT INDEX.         WCI  - WIND CHILL INDEX.

*  THESE STATIONS ARE NOT NWS OR FAA STATIONS AND ARE NOT UNDER
   NWS QUALITY CONTROL.

LAZ040-048-061>063-065-066-069-161200-
SOUTHEAST LOUISIANA

CITY           SKY/WX    TMP DP  RH WIND       PRES   REMARKS
N.O. AUDUBON     N/A     47  33  58 MISG        N/A
N.O. INTL ARPT CLEAR     48  34  58 NE8       30.19R
N.O. LAKEFRONT CLEAR     49  35  58 E18       30.20R
N.O. DOWNTOWN* FAIR      48  30  49 NE3       30.19S
SLIDELL        CLEAR     40  33  76 NE5       30.19R
BATON ROUGE    CLEAR     38  32  79 NE5       30.20R WCI  34
BOOTHVILLE     CLEAR     53  38  56 NE12      30.18R
BELLE CHASSE   CLEAR     45  33  63 NE6       30.19R
BOGALUSA*        N/A     37  33  88 NW3       30.21R
GALLIANO*      NOT AVBL
NEW ROADS*     NOT AVBL
GONZALES*      FAIR      39  36  86 NE3       30.20S
HAMMOND*       NOT AVBL
HOUMA*           N/A     39  37  90 CALM      30.19R FOG
PORT FOURCHON* CLOUDY    52  41  66 NE13      30.19R

$$

LAZ041-044-053-054-161200-
SOUTHWEST LOUISIANA

CITY           SKY/WX    TMP DP  RH WIND       PRES   REMARKS
LAKE CHARLES   CLEAR     37  36  96 CALM      30.21R
LAFAYETTE      CLEAR     41  36  82 E3        30.21R
PATTERSON      CLEAR     43  34  70 E5        30.22S
SALT POINT       N/A     45  37  73 CALM      30.19R
NEW IBERIA     CLEAR     41  34  76 NE7       30.21R
CHENAULT AIRPK NOT AVBL

$$

LAZ027-028-161200-
CENTRAL LOUISIANA

CITY           SKY/WX    TMP DP  RH WIND       PRES   REMARKS
FORT POLK      CLEAR     37  34  89 CALM      30.20R
ALEXANDRIA INT CLEAR     38  35  89 CALM      30.21R
ALEXANDRIA     CLEAR     34  32  92 CALM      30.22R

$$

LAZ001-002-161200-
NORTHWEST LOUISIANA

CITY           SKY/WX    TMP DP  RH WIND       PRES   REMARKS
SHREVEPORT     CLEAR     41  33  73 SE6       30.20R
BARKSDALE AFB  CLEAR     37  34  89 S3        30.21R
DTN SHREVEPORT CLEAR     40  33  76 SE7       30.21R

$$

LAZ014-016-161200-
NORTHEAST LOUISIANA

CITY           SKY/WX    TMP DP  RH WIND       PRES   REMARKS
MONROE         CLEAR     37  34  89 CALM      30.23R
TALLULAH       CLEAR     43  32  65 E7        30.23R

$$




USA.gov is the U.S. government's official web portal to all federal, state and local government web resources and services.